Back to catalog

ARIANE 3 DEB

AliveGTO
NORAD 33536·DEBRIS·🇫🇷 France

Launched Sep 8, 1988 from Guiana Space Centre

Loading…

TLE

AgingSource: Space-Track

Epoch: Sep 14, 2026, 03:12 UTC

1 33536U 88081L   26257.13399383 -.00000065  00000-0  00000-0 0  9998
2 33536   6.1905 255.8703 6974507 196.7802 302.7128  2.15745884175475

Track ARIANE 3 DEB in real time with AllMySat

Download on the App Store